Regional Weather Roundup
Issued by NWS Sterling, VA

Home | Current Version | Previous Version | Graphics & Text | Print | Product List | Glossary On
Versions: 1 2 3 4 5 6 7 8 9 10 11 12 13 14 15 16 17 18 19 20 21 22 23 24 25 26 27 28 29 30 31 32 33 34 35 36 37 38 39 40 41 42 43 44 45 46 47 48 49 50
000
ASUS41 KLWX 280210
RWRLWX

REGIONAL WEATHER ROUNDUP
NATIONAL WEATHER SERVICE BALTIMORE MD/WASHINGTON DC
1000 PM EDT WED AUG 27 2014

Note: "FAIR" indicates few or no clouds below 12,000 feet
with no significant weather and/or obstructions to visibility.
 TC=TEMPERATURE CELSIUS

 * =Non NWS site. Station does not report precipitation (e.g. rain,
    snow, etc.), thunder, or fog.

DCZ001-MDZ009-015-VAZ040>042-051-053>054-280300-
WASHINGTON METRO
  /KDAA//-FT BELVOIR

CITY           SKY/WX    TMP DP  RH WIND       PRES   REMARKS
WASHINGTON NAT PTCLDY    82  65  56 SW6       29.92F
DULLES         PTCLDY    75  69  81 SW3       29.94S
ANDREWS AFB    CLEAR     77  67  69 W6        29.92F
QUANTICO       CLEAR     75  71  87 NW7       29.94S
COLLEGE PARK*  CLEAR     75  70  83 CALM      29.92S
LEESBURG*      CLEAR     77  72  83 W5        29.95S
MANASSAS*      CLEAR     73  73 100 CALM      29.94S
GAITHERSBURG*  PTCLDY    73  68  83 CALM      29.97F

$$

MDZ006>007-011-014-280300-
BALTIMORE METRO

CITY           SKY/WX    TMP DP  RH WIND       PRES   REMARKS
BWI AIRPORT    PTCLDY    77  67  71 CALM      29.91S
MD SCIENCE CTR   N/A     83  67  58 MISG      29.91S
MARTIN STATE   CLEAR     77  73  88 CALM      29.92S
ANNAPOLIS        N/A    N/A N/A N/A MISG      29.91S
FORT MEADE*    PTCLDY    70  68  94 CALM      29.94F

$$

MDZ012-015-019>023-280300-
MARYLAND EASTERN SHORE

CITY           SKY/WX    TMP DP  RH WIND       PRES   REMARKS
OCEAN CITY     CLEAR    N/A N/A N/A CALM      29.92S
SALISBURY      CLEAR     72  64  76 CALM      29.92S
BAY BRIDGE AP*   N/A     77  68  73 S3        29.91F
CAMBRIDGE*     CLEAR     72  64  78 CALM      29.92S

$$

MDZ017>025-280300-
SOUTHERN MARYLAND

CITY           SKY/WX    TMP DP  RH WIND       PRES   REMARKS
PATUXENT RIVER CLEAR     74  66  76 SW6       29.92S
ST INIGOES     CLEAR     69  64  84 CALM      29.92S
LEONARDTOWN*   CLEAR     72  63  73 W3        29.94F

$$

MDZ003>005-280300-
NORTH CENTRAL MARYLAND

CITY           SKY/WX    TMP DP  RH WIND       PRES   REMARKS
FREDERICK*     PTCLDY    77  73  88 SE3       29.95F
HAGERSTOWN APT MOCLDY    79  70  74 W5        29.95S
WESTMINSTER*   PTCLDY    77  72  83 SW5       29.95S

$$

MDZ501>502-280300-
WESTERN MARYLAND

CITY           SKY/WX    TMP DP  RH WIND       PRES   REMARKS
OAKLAND*       CLOUDY    64 N/A N/A W6        30.12S FOG
CUMBERLAND*    MOCLDY    79  64  61 CALM      30.03R

$$

VAZ025>031-280300-
SHENANDOAH VALLEY

CITY           SKY/WX    TMP DP  RH WIND       PRES   REMARKS
WINCHESTER*    PTCLDY    73  68  83 CALM      29.97R
STAUNTON*      CLEAR     72  66  82 CALM      30.03R

$$

WVZ021-048>050-054>055-280300-
EASTERN WEST VIRGINIA PANHANDLE

CITY           SKY/WX    TMP DP  RH WIND       PRES   REMARKS
MARTINSBURG    PTCLDY    77  68  73 S5        29.96R
PETERSBURG*    NOT AVBL

$$

VAZ036>039-050-280300-
CENTRAL FOOTHILLS

CITY           SKY/WX    TMP DP  RH WIND       PRES   REMARKS
CHARLOTTESVILL CLEAR     73  68  84 CALM      29.98R
ORANGE*        CLEAR     72  68  88 CALM      29.98R

$$

VAZ055>057-280300-
NORTH AND CENTRAL PIEDMONT

CITY           SKY/WX    TMP DP  RH WIND       PRES   REMARKS
FREDERICKSBRG* CLEAR     73  67  80 CALM      29.93S
STAFFORD*      CLEAR     70  70 100 NW3       29.98S

$$

NCZ024-NYZ072-PAZ021-071-VAZ022-071-280300-
OTHER REGIONAL OBSERVATIONS

CITY           SKY/WX    TMP DP  RH WIND       PRES   REMARKS
NEW YORK CITY  CLOUDY    81  65  58 NE10      29.92S
PHILADELPHIA   PTCLDY    80  66  62 SW10      29.90S
PITTSBURGH     MOCLDY    72  64  76 N9        30.06R
ROANOKE        CLEAR     74  62  66 N5        30.05R
RICHMOND       PTCLDY    76  65  68 CALM      29.95S
RALEIGH        PTCLDY    67  61  81 CALM      30.00R

$$

ANZ530>537-280300-
MARINE OBSERVATIONS

STATION/POSITION TIME  TEMP    WIND        PRES
                       AIR SEA DIR/SP/G
                 (UTC) (F)     (DEG/KT/KT) (MB)
THOMAS PT LIGHT  0200   79 79  220/  6/  7 1013.8F
BALT KEY BRIDGE  0200   85     210/  5/  6 1012.6F
COVE POINT       0200   78     270/  7/  9 1013.0S
LEWISETTA        0200   76 81  250/  5/  6 1013.0S
SOLOMONS ISLAND  0200      81                N/A
PINEY POINT      0200          250/  4/  5   N/A

$$




USA.gov is the U.S. government's official web portal to all federal, state and local government web resources and services.